TimePST,TemperatureF,Dew PointF,Humidity,Sea Level PressureIn,VisibilityMPH,Wind Direction,Wind SpeedMPH,Gust SpeedMPH,PrecipitationIn,Events,Conditions,WindDirDegrees,DateUTC
12:52 AM,32.0,28.0,85,30.11,-9999.0,Calm,Calm,-,N/A,,Unknown,0,2012-12-23 08:52:00
1:52 AM,30.0,27.0,88,30.10,-9999.0,NNE,4.6,-,N/A,,Unknown,30,2012-12-23 09:52:00
2:52 AM,32.0,28.0,85,30.12,-9999.0,NNE,3.5,-,N/A,,Unknown,30,2012-12-23 10:52:00
3:52 AM,30.0,27.0,88,30.11,-9999.0,ENE,6.9,-,N/A,,Unknown,70,2012-12-23 11:52:00
4:52 AM,30.0,27.0,88,30.12,-9999.0,NE,5.8,-,N/A,,Unknown,50,2012-12-23 12:52:00
5:52 AM,28.0,25.0,88,30.14,-9999.0,ENE,5.8,-,N/A,,Unknown,70,2012-12-23 13:52:00
6:52 AM,28.9,26.1,89,30.16,-9999.0,NE,3.5,-,N/A,,Unknown,40,2012-12-23 14:52:00
7:52 AM,34.0,30.0,85,30.16,-9999.0,NE,5.8,-,N/A,,Unknown,50,2012-12-23 15:52:00
8:52 AM,43.0,36.0,76,30.15,-9999.0,Calm,Calm,-,N/A,,Unknown,0,2012-12-23 16:52:00
9:52 AM,51.1,39.9,66,30.14,-9999.0,SW,10.4,-,N/A,,Unknown,220,2012-12-23 17:52:00
10:52 AM,55.0,41.0,59,30.14,-9999.0,WNW,8.1,-,N/A,,Unknown,290,2012-12-23 18:52:00
11:52 AM,54.0,39.9,59,30.11,-9999.0,West,12.7,20.7,N/A,,Unknown,260,2012-12-23 19:52:00
12:52 PM,53.1,41.0,64,30.10,-9999.0,West,13.8,-,N/A,,Unknown,280,2012-12-23 20:52:00
1:52 PM,52.0,41.0,66,30.08,-9999.0,WNW,12.7,-,N/A,,Unknown,300,2012-12-23 21:52:00
2:52 PM,53.1,41.0,64,30.06,-9999.0,WNW,9.2,-,N/A,,Unknown,300,2012-12-23 22:52:00
3:52 PM,52.0,39.9,63,30.06,-9999.0,West,11.5,-,N/A,,Unknown,260,2012-12-23 23:52:00
4:52 PM,50.0,41.0,71,30.06,-9999.0,WSW,6.9,-,N/A,,Unknown,240,2012-12-24 00:52:00
5:52 PM,48.0,41.0,77,30.09,-9999.0,WSW,6.9,-,N/A,,Unknown,240,2012-12-24 01:52:00
6:52 PM,46.9,41.0,80,30.10,-9999.0,WSW,3.5,-,N/A,,Unknown,240,2012-12-24 02:52:00
7:52 PM,44.1,39.9,85,30.10,-9999.0,SW,5.8,-,N/A,,Unknown,220,2012-12-24 03:52:00
8:52 PM,43.0,39.9,89,30.09,-9999.0,Calm,Calm,-,N/A,,Unknown,0,2012-12-24 04:52:00
9:52 PM,36.0,34.0,93,30.10,-9999.0,Calm,Calm,-,N/A,,Unknown,0,2012-12-24 05:52:00
10:52 PM,35.1,34.0,96,30.10,-9999.0,Calm,Calm,-,N/A,,Unknown,0,2012-12-24 06:52:00
11:52 PM,35.1,33.1,92,30.09,-9999.0,Calm,Calm,-,N/A,,Unknown,0,2012-12-24 07:52:00